Temperature
2 2 2 2 2 2 2 1 1 1 1 1 1 1 1 1 1 1 1 1 1 2 2 2 2 2 2 2 1 1 1 1 1 1 1 1 1 1
2 2 2 2 1 1 1 1 0 0 -0 0 0 1 1 1 1 1 1 1 1 1 1 1 1 1 1 1 1 1 1 1 1 1 0 0 0 1
1 1 1 1 1 1 1 1 0 -0 -1 -0 0 0 0 0 0 0 0 0 0 1 1 1 1 1 0 0 0 0 0 0 0 -0 -0 -0 -0 -0
1 1 1 1 0 0 0 -0 -0 -0 -1 -1 -0 -0 -0 -0 -0 -0 -0 0 0 0 0 0 0 0 0 -0 -0 -0 -0 -0 -0 -1 -1 -1 -1 -1
0 0 0 0 -0 -0 -0 -0 -1 -1 -1 -1 -1 -1 -1 -1 -1 -1 -1 -0 -0 -0 -0 -0 -0 -0 -0 -0 -1 -1 -1 -1 -1 -1 -1 -1 -1 -1
-0 -0 -0 -0 -0 -0 -1 -1 -1 -1 -1 -1 -2 -1 -1 -1 -1 -1 -1 -1 -1 -1 -1 -1 -1 -1 -1 -1 -1 -1 -1 -1 -1 -2 -2 -2 -2 -2
-0 -0 -1 -1 -1 -1 -1 -1 -1 -1 -2 -2 -2 -2 -2 -2 -2 -2 -2 -2 -1 -1 -1 -1 -1 -1 -1 -1 -1 -2 -2 -2 -2 -2 -2 -2 -2 -2
-1 -1 -1 -1 -1 -1 -1 -1 -2 -2 -2 -2 -2 -3 -3 -3 -3 -3 -3 -2 -2 -2 -2 -2 -2 -2 -2 -2 -2 -2 -2 -2 -2 -3 -3 -3 -3 -3
-1 -1 -1 -1 -1 -1 -2 -2 -2 -2 -2 -2 -3 -3 -3 -3 -3 -3 -3 -3 -3 -2 -2 -2 -2 -2 -2 -2 -2 -3 -3 -3 -3 -3 -3 -3 -3 -3
-2 -2 -2 -2 -2 -2 -2 -2 -2 -2 -2 -3 -3 -3 -3 -3 -3 -3 -3 -3 -3 -3 -3 -3 -2 -2 -2 -3 -3 -3 -3 -3 -3 -3 -3 -3 -3 -3
-2 -2 -2 -2 -2 -2 -3 -3 -3 -3 -3 -3 -3 -3 -3 -3 -3 -3 -4 -4 -4 -3 -4 -4 -3 -3 -3 -3 -3 -3 -3 -3 -3 -3 -3 -3 -3 -3
-3 -3 -2 -2 -3 -3 -3 -3 -3 -3 -3 -3 -3 -3 -3 -3 -3 -4 -4 -4 -4 -4 -4 -4 -4 -4 -4 -4 -4 -4 -4 -4 -4 -4 -4 -4 -4 -4
-3 -3 -3 -3 -3 -3 -3 -3 -3 -3 -3 -4 -4 -3 -3 -4 -4 -4 -4 -4 -4 -5 -4 -5 -5 -5 -5 -5 -4 -4 -4 -4 -4 -4 -4 -4 -4 -4
-4 -3 -3 -3 -3 -3 -4 -4 -4 -4 -4 -4 -4 -4 -4 -4 -4 -4 -4 -4 -4 -5 -5 -5 -5 -5 -5 -5 -5 -5 -5 -5 -5 -5 -4 -4 -4 -4
-4 -4 -4 -4 -4 -4 -4 -4 -4 -4 -4 -4 -4 -4 -4 -4 -4 -4 -4 -4 -4 -5 -5 -5 -5 -5 -5 -5 -5 -5 -5 -5 -5 -5 -5 -5 -5 -5
-4 -4 -4 -4 -4 -5 -5 -5 -5 -5 -5 -5 -5 -4 -4 -5 -5 -5 -5 -5 -5 -5 -5 -5 -5 -5 -5 -5 -6 -5 -5 -5 -5 -5 -5 -5 -5 -5
-4 -4 -5 -5 -5 -5 -5 -5 -5 -5 -5 -5 -5 -5 -5 -5 -5 -5 -5 -5 -5 -5 -5 -5 -5 -5 -5 -6 -5 -5 -5 -6 -5 -5 -5 -5 -5 -5
-5 -5 -5 -5 -5 -5 -5 -5 -5 -5 -5 -5 -5 -5 -5 -5 -5 -5 -5 -6 -6 -5 -5 -5 -6 -6 -6 -6 -5 -5 -6 -6 -6 -6 -6 -6 -5 -5
-5 -5 -5 -5 -5 -5 -5 -5 -5 -5 -5 -5 -5 -5 -5 -5 -5 -6 -6 -6 -6 -6 -6 -6 -6 -6 -6 -6 -6 -6 -6 -6 -6 -6 -6 -6 -6 -5
-5 -5 -5 -5 -5 -5 -5 -5 -5 -5 -5 -5 -5 -5 -5 -5 -6 -6 -6 -6 -6 -6 -6 -6 -6 -6 -6 -6 -6 -6 -6 -6 -6 -6 -6 -6 -6 -5
-5 -5 -5 -5 -5 -5 -5 -5 -5 -5 -5 -5 -5 -6 -6 -6 -6 -6 -6 -6 -6 -6 -6 -6 -6 -6 -6 -6 -6 -6 -6 -6 -6 -6 -6 -6 -6 -6
-5 -5 -5 -5 -5 -5 -5 -5 -6 -6 -6 -6 -6 -6 -6 -6 -6 -6 -6 -6 -6 -6 -6 -6 -6 -6 -6 -6 -6 -6 -6 -6 -6 -6 -6 -6 -6 -7
-5 -5 -5 -5 -5 -5 -5 -5 -6 -6 -6 -6 -6 -6 -6 -6 -6 -6 -6 -6 -6 -6 -6 -6 -6 -6 -6 -6 -6 -6 -6 -6 -6 -6 -6 -6 -6 -6
Wind_Speed
4 5 4 4 4 4 4 4 4 5 5 4 3 3 4 6 7 8 9 10 11 11 11 11 11 11 12 12 12 13 14 14 15 15 15 16 17 17
4 4 5 4 4 4 4 4 5 5 6 5 5 5 6 6 8 9 9 11 11 10 10 10 11 11 12 12 12 13 13 14 14 15 16 16 17 17
4 5 5 5 4 4 4 4 5 5 7 7 5 5 6 7 7 8 8 8 8 9 10 10 11 11 11 12 12 13 13 14 14 15 16 16 17 17
5 5 5 4 5 5 4 5 5 5 6 8 7 5 7 7 7 7 7 7 8 8 10 10 10 10 10 11 12 12 13 13 13 14 15 15 16 16
6 6 6 5 6 5 5 5 5 5 6 7 7 6 5 5 6 6 7 6 7 8 9 9 9 9 10 10 11 12 12 12 13 13 14 15 16 16
5 5 6 6 6 6 5 6 5 5 5 6 6 5 5 5 5 6 6 6 6 6 7 8 8 8 9 9 10 11 11 12 12 13 14 14 15 15
5 5 5 6 6 6 5 5 5 5 5 5 5 5 5 5 5 5 6 6 6 5 5 6 6 6 6 7 8 9 10 11 12 13 13 14 14 15
5 5 5 6 6 8 8 8 7 6 6 6 6 6 7 6 6 5 6 6 5 4 6 6 5 5 5 6 8 10 10 11 12 13 13 14 14 14
6 5 4 4 5 5 6 7 8 8 8 7 7 8 8 7 6 7 6 6 7 6 6 7 5 6 6 7 8 9 10 10 11 12 13 14 14 14
6 6 5 5 4 4 5 5 6 6 7 7 7 8 7 7 6 7 7 7 7 5 4 5 6 6 6 7 7 8 8 9 11 12 13 13 13 13
6 6 6 6 6 6 5 5 6 6 6 7 9 9 9 9 7 5 5 5 5 5 3 3 5 6 6 6 5 5 7 9 11 12 12 13 13 12
5 6 7 7 7 7 6 6 6 6 5 5 6 7 7 6 6 5 5 5 4 3 2 3 4 4 4 4 4 5 6 8 10 11 11 11 12 9
5 5 5 7 8 8 7 6 6 6 5 5 5 4 4 4 4 4 5 5 5 4 3 3 4 4 4 5 5 5 5 6 7 8 9 10 11 9
5 5 5 6 7 7 6 6 6 6 4 4 4 4 4 4 4 4 5 5 5 6 6 5 4 5 5 6 5 5 6 6 6 6 6 9 9 10
5 6 6 6 6 6 6 7 6 4 4 4 4 4 4 4 4 4 4 4 5 5 5 6 6 5 5 5 5 6 6 5 6 6 6 6 6 7
5 5 6 6 5 5 4 4 4 4 4 4 4 4 3 3 3 3 3 3 3 3 4 5 5 5 5 6 5 6 5 4 5 6 6 6 6 5
4 3 3 3 3 3 3 3 3 3 3 3 3 3 3 3 3 3 3 3 3 3 4 4 4 4 5 5 5 5 5 5 5 6 5 6 5 5
4 4 4 4 4 3 3 3 3 3 3 3 3 3 3 3 3 3 2 3 3 3 3 3 3 3 3 3 4 5 4 5 5 5 5 5 5 5
4 4 4 4 4 3 3 3 3 3 3 3 3 3 3 3 2 2 2 3 3 3 3 3 3 3 4 4 2 2 4 5 5 5 4 4 5 6
4 4 4 4 4 4 3 3 3 3 3 3 3 3 3 2 2 3 3 3 3 3 3 3 3 3 4 4 4 3 4 4 4 5 5 5 4 6
4 4 4 4 4 4 3 3 3 3 3 3 3 3 3 2 2 3 3 3 3 3 3 4 4 4 3 2 3 3 3 3 4 4 4 4 4 4
4 4 4 4 4 3 3 3 3 3 3 3 3 2 2 3 3 3 3 3 3 3 4 4 3 2 2 2 3 4 4 4 3 4 4 4 3 3
4 4 4 4 3 3 3 3 4 3 3 3 3 3 3 3 2 2 2 3 3 3 3 3 2 2 2 2 2 3 4 4 4 4 3 4 4 6
Wind_Direction
231 234 240 246 249 250 249 251 258 271 275 274 271 280 297 299 298 295 295 297 297 297 299 302 304 305 307 307 306 307 307 307 306 307 306 305 304 304
230 236 241 245 246 246 245 248 253 261 268 275 280 293 298 294 295 294 293 294 288 290 295 299 302 303 304 305 305 305 306 306 306 306 305 304 304 303
230 236 242 246 246 245 245 246 250 254 263 276 283 286 288 290 295 295 296 293 290 289 293 296 297 299 301 303 304 304 305 306 306 307 307 306 305 305
231 235 240 240 243 247 246 247 249 252 260 272 280 282 286 291 294 296 298 296 292 292 293 293 296 299 301 302 304 305 306 307 308 308 309 309 307 306
233 234 237 237 244 247 249 253 254 256 258 265 276 283 290 297 298 297 298 298 296 295 291 290 295 297 299 303 305 306 308 309 309 309 308 307 308 307
239 240 240 238 244 248 250 252 254 256 258 263 271 279 290 298 298 300 302 300 300 302 294 289 289 288 291 298 303 307 309 309 309 308 308 309 309 308
244 244 244 246 252 255 254 252 251 254 259 263 267 276 283 297 297 300 296 301 300 297 300 294 293 289 290 294 299 308 311 312 311 311 311 310 310 309
245 246 245 242 246 251 254 256 257 256 259 263 267 271 277 285 293 295 298 301 299 301 303 297 296 292 292 294 305 309 310 313 314 315 315 313 312 312
243 245 245 245 246 254 255 253 257 257 259 262 265 268 276 279 283 285 286 291 290 300 303 292 297 295 297 294 301 306 310 314 320 321 318 316 314 313
245 244 245 249 246 248 254 258 264 263 259 258 262 269 274 277 273 276 283 286 290 287 292 288 300 301 302 293 293 301 311 317 322 325 324 324 322 319
247 246 246 249 247 244 247 257 268 274 264 256 263 269 272 276 278 276 276 276 286 287 293 287 298 308 301 289 292 295 303 312 319 323 326 329 328 323
246 243 242 247 249 243 244 249 259 267 269 269 263 265 267 266 257 258 263 265 280 281 288 290 294 314 305 295 305 313 312 312 318 322 324 328 330 325
250 247 245 244 248 251 251 253 258 269 269 270 271 272 273 270 263 264 263 261 265 270 274 291 289 295 287 296 303 308 311 314 319 319 319 324 328 327
252 253 252 248 252 256 256 256 260 265 263 261 264 266 270 274 277 281 281 277 270 270 269 273 274 280 285 292 296 309 311 312 316 315 317 321 324 324
257 259 258 253 253 254 254 254 253 254 251 253 259 265 269 274 278 284 288 288 286 276 266 268 267 269 273 281 292 302 308 310 316 317 317 320 323 326
260 256 254 248 249 250 250 248 248 248 251 255 263 269 273 271 275 284 288 292 288 290 286 280 273 266 271 278 284 292 302 305 313 315 314 314 318 321
261 257 251 247 246 241 246 251 247 244 250 257 260 264 268 270 277 280 281 284 283 291 303 307 298 279 269 274 282 289 297 304 307 315 316 317 321 324
247 245 246 246 246 243 244 247 246 244 250 253 254 255 257 261 271 279 277 279 284 287 295 303 306 298 279 263 246 278 294 304 313 316 317 315 322 331
237 237 241 244 245 243 243 244 247 248 249 250 253 253 253 256 262 271 278 282 286 291 295 297 297 296 297 304 287 248 292 308 314 317 318 316 315 323
235 237 240 242 243 243 240 244 247 246 244 246 247 248 249 253 258 266 272 280 287 292 294 296 296 293 290 295 298 295 291 296 306 314 321 315 308 307
236 238 242 243 244 242 240 241 243 242 241 241 242 242 244 246 254 261 270 277 282 284 290 296 297 294 290 282 283 298 316 321 303 299 312 312 316 326
239 240 242 243 241 240 239 238 240 239 234 234 236 237 238 239 247 255 264 271 277 283 290 298 298 295 293 278 288 304 318 333 332 308 300 301 308 326
241 240 240 237 237 237 235 231 231 234 232 232 233 234 234 236 245 252 259 265 274 286 295 301 304 308 305 286 291 307 320 331 339 347 348 344 315 305
Height
1499 1499 1499 1499 1498 1498 1498 1498 1499 1496 1495 1494 1493 1491 1490 1488 1487 1485 1483 1482 1481 1479 1478 1476 1475 1473 1471 1469 1468 1466 1464 1463 1461 1459 1457 1455 1453 1452
1495 1495 1495 1495 1494 1494 1494 1494 1494 1493 1491 1490 1489 1487 1486 1484 1483 1481 1479 1478 1476 1475 1473 1472 1470 1469 1467 1465 1463 1462 1460 1458 1456 1454 1452 1450 1448 1446
1491 1491 1491 1491 1490 1490 1490 1489 1489 1489 1487 1485 1485 1483 1482 1480 1479 1477 1475 1474 1472 1471 1469 1468 1466 1464 1462 1460 1459 1457 1455 1453 1451 1449 1446 1444 1442 1440
1487 1487 1487 1487 1486 1486 1485 1485 1485 1484 1483 1481 1480 1479 1477 1476 1474 1473 1471 1470 1468 1466 1465 1463 1462 1460 1458 1456 1454 1452 1450 1448 1446 1443 1441 1439 1437 1435
1484 1483 1483 1483 1482 1482 1481 1481 1480 1480 1479 1477 1475 1474 1473 1472 1470 1469 1467 1466 1464 1463 1461 1459 1457 1456 1454 1452 1450 1448 1446 1443 1441 1439 1436 1434 1432 1430
1479 1479 1479 1479 1478 1478 1477 1477 1476 1475 1475 1473 1472 1470 1469 1468 1466 1465 1463 1462 1460 1459 1457 1455 1453 1451 1450 1448 1446 1443 1441 1439 1436 1434 1432 1429 1427 1425
1475 1475 1475 1475 1474 1474 1473 1473 1472 1471 1470 1469 1468 1466 1465 1464 1463 1461 1460 1458 1456 1455 1453 1451 1449 1447 1446 1443 1441 1439 1437 1434 1432 1430 1427 1425 1423 1420
1471 1471 1471 1470 1470 1470 1469 1469 1468 1467 1466 1465 1464 1463 1461 1461 1460 1458 1457 1454 1452 1452 1450 1447 1446 1443 1442 1440 1437 1435 1433 1430 1428 1426 1423 1421 1418 1416
1467 1467 1466 1466 1466 1465 1465 1464 1463 1463 1462 1462 1460 1459 1458 1457 1456 1454 1453 1451 1449 1448 1446 1443 1442 1440 1438 1436 1434 1431 1429 1427 1424 1422 1419 1417 1414 1412
1463 1462 1462 1462 1461 1461 1460 1460 1459 1458 1458 1457 1456 1455 1455 1454 1453 1451 1450 1448 1446 1445 1443 1440 1438 1436 1434 1432 1430 1428 1426 1424 1421 1418 1416 1413 1411 1408
1458 1458 1458 1457 1457 1457 1456 1455 1454 1454 1454 1453 1452 1451 1451 1450 1448 1447 1445 1444 1442 1440 1440 1438 1435 1433 1431 1429 1427 1425 1423 1421 1418 1415 1413 1410 1408 1405
1454 1453 1453 1453 1453 1452 1452 1451 1450 1450 1449 1449 1448 1447 1446 1445 1444 1443 1442 1441 1439 1437 1436 1435 1433 1431 1428 1426 1425 1422 1420 1418 1415 1412 1410 1408 1405 1402
1449 1449 1449 1449 1449 1448 1448 1447 1446 1446 1445 1444 1443 1443 1442 1441 1440 1439 1438 1437 1436 1434 1433 1432 1430 1429 1427 1424 1421 1420 1417 1414 1412 1410 1407 1405 1403 1401
1445 1445 1445 1444 1444 1444 1444 1443 1443 1442 1441 1440 1439 1439 1438 1437 1436 1435 1434 1433 1432 1431 1430 1429 1428 1426 1424 1422 1419 1417 1415 1412 1410 1407 1405 1403 1401 1398
1441 1441 1441 1441 1440 1440 1439 1439 1439 1438 1437 1436 1435 1435 1434 1434 1433 1432 1430 1430 1428 1427 1427 1426 1425 1423 1422 1420 1417 1415 1412 1410 1408 1405 1403 1401 1398 1396
1437 1437 1437 1437 1436 1436 1435 1435 1434 1434 1433 1433 1432 1431 1431 1430 1429 1428 1427 1426 1425 1424 1424 1423 1422 1420 1419 1417 1415 1413 1411 1408 1406 1404 1401 1399 1397 1394
1433 1433 1433 1433 1432 1432 1431 1431 1430 1430 1430 1429 1429 1428 1427 1427 1426 1425 1425 1423 1422 1421 1420 1420 1419 1418 1416 1415 1413 1411 1409 1407 1404 1402 1399 1397 1395 1393
1430 1429 1429 1429 1428 1428 1428 1427 1427 1427 1427 1426 1426 1425 1425 1424 1423 1423 1422 1421 1420 1419 1418 1417 1416 1415 1414 1412 1411 1409 1407 1405 1403 1401 1398 1395 1393 1392
1426 1425 1425 1425 1425 1425 1424 1424 1424 1424 1424 1424 1423 1423 1422 1422 1421 1420 1420 1419 1418 1417 1416 1415 1414 1413 1412 1410 1408 1407 1405 1403 1401 1399 1397 1395 1392 1390
1422 1422 1422 1422 1422 1421 1421 1421 1421 1421 1421 1421 1420 1420 1420 1419 1419 1418 1418 1417 1416 1415 1414 1413 1412 1411 1410 1409 1407 1405 1404 1402 1400 1398 1396 1394 1392 1390
1418 1418 1418 1419 1419 1419 1418 1419 1419 1419 1418 1418 1418 1417 1417 1417 1417 1416 1416 1415 1415 1414 1412 1412 1411 1410 1409 1407 1406 1404 1403 1401 1399 1397 1395 1393 1390 1388
1415 1415 1415 1416 1416 1416 1416 1416 1416 1416 1416 1415 1415 1415 1415 1415 1415 1414 1414 1413 1413 1412 1411 1410 1409 1408 1407 1406 1404 1403 1401 1400 1398 1396 1394 1393 1391 1388
1412 1412 1412 1413 1413 1413 1413 1413 1413 1413 1413 1413 1413 1413 1413 1413 1413 1413 1412 1412 1411 1411 1410 1409 1408 1407 1406 1405 1403 1402 1400 1399 1397 1395 1394 1393 1391 1389